This is the latest recevied weather packets stored in our database for station/object W9QL-13. If no packets are shown the sender has not sent any weather packets the latest 10 day(s).
| Time | Temp. | Humidity | Pressure | Rain* | Wind** | Luminosity | Snow |
|---|---|---|---|---|---|---|---|
| 1777831370 | 16.11° C | 51% | 1007.9 hPa | 0 mm | - | - | - |
| 1777831068 | 15.56° C | 48% | 1008.1 hPa | 0 mm | - | - | - |
| 1777830768 | 15.56° C | 50% | 1008.3 hPa | 0 mm | - | - | - |
| 1777830439 | 16.11° C | 53% | 1008.4 hPa | 0 mm | - | - | - |
| 1777830138 | 15.56° C | 52% | 1008.5 hPa | 0 mm | - | - | - |
| 1777829808 | 15° C | 54% | 1008.6 hPa | 0 mm | - | - | - |
| 1777829508 | 14.44° C | 55% | 1008.8 hPa | 0 mm | - | - | - |
| 1777829208 | 14.44° C | 56% | 1009 hPa | 0 mm | - | - | - |
| 1777828908 | 13.89° C | 61% | 1009.3 hPa | 0 mm | - | - | - |
| 1777828608 | 13.33° C | 60% | 1009.5 hPa | 0 mm | - | - | - |
| 1777828308 | 12.78° C | 60% | 1009.5 hPa | 0 mm | - | - | - |
| 1777828008 | 12.78° C | 60% | 1009.7 hPa | 0 mm | - | - | - |
| 1777827709 | 13.33° C | 60% | 1009.7 hPa | 0 mm | - | - | - |
| 1777827378 | 13.89° C | 59% | 1009.8 hPa | 0 mm | - | - | - |
| 1777827048 | 13.33° C | 63% | 1009.9 hPa | 0 mm | - | - | - |
| 1777826718 | 12.78° C | 65% | 1009.9 hPa | 0 mm | - | - | - |
| 1777826418 | 12.78° C | 64% | 1009.9 hPa | 0 mm | - | - | - |
| 1777826118 | 12.22° C | 67% | 1010 hPa | 0 mm | - | - | - |
| 1777825788 | 11.67° C | 69% | 1010.3 hPa | 0 mm | - | - | - |
| 1777825458 | 11.67° C | 70% | 1010.5 hPa | 0 mm | - | - | - |
| 1777825158 | 11.67° C | 70% | 1010.6 hPa | 0 mm | - | - | - |
| 1777824858 | 11.67° C | 68% | 1010.7 hPa | 0 mm | - | - | - |
| 1777824558 | 12.22° C | 66% | 1010.9 hPa | 0 mm | - | - | - |
| 1777824258 | 12.78° C | 62% | 1010.9 hPa | 0 mm | - | - | - |
| 1777823928 | 12.78° C | 61% | 1011 hPa | 0 mm | - | - | - |
* Rain latest hour (hover to see other rain measurements)
** Current wind speed in m/s (hover to see current wind gust speed)